Regional Weather Roundup
Issued by NWS

Home | Current Version | Previous Version | Text Only | Print | Product List | Glossary On
Versions: 1 2 3 4 5 6 7 8 9 10 11 12 13 14 15 16 17 18 19 20 21 22 23 24 25 26 27 28 29 30 31 32 33 34 35 36 37 38 39 40 41 42 43 44 45 46 47 48 49 50
000
ASUS43 KMKX 011221
RWRWI

WISCONSIN REGIONAL WEATHER ROUNDUP
NATIONAL WEATHER SERVICE MILWAUKEE/SULLIVAN WI
700 AM CDT FRI AUG 01 2014

NOTE: "FAIR" INDICATES FEW OR NO CLOUDS BELOW 12,000 FEET WITH NO
SIGNIFICANT WEATHER AND/OR OBSTRUCTIONS TO VISIBILITY.

WIZ001-002-006>008-014>016-023>028-011300-
NORTHWEST WISCONSIN

CITY           SKY/WX    TMP DP  RH WIND       PRES   REMARKS
SUPERIOR ARPT  SUNNY     56  55  97 NE6       30.05R
6HR MIN TEMP:  49; 6HR MAX TEMP:  57;

ASHLAND        SUNNY     53  52  96 W3        30.05R
6HR MIN TEMP:  49; 6HR MAX TEMP:  57;

HAYWARD        CLOUDY    54  54 100 NE3       30.06R FOG
6HR MIN TEMP:  53; 6HR MAX TEMP:  58;

SIREN          PTSUNNY   56  56  97 CALM      30.05R FOG
6HR MIN TEMP:  54; 6HR MAX TEMP:  60;

RICE LAKE      MOSUNNY   57  56  96 CALM      30.06R FOG
6HR MIN TEMP:  57; 6HR MAX TEMP:  61;

LADYSMITH      FOG       56  56  97 CALM      30.07R VSB 1/4
6HR MIN TEMP:  55; 6HR MAX TEMP:  60; 6HR PCP:  0.01;

EAU CLAIRE     SUNNY     63  61  93 SW3       30.04R
6HR MIN TEMP:  61; 6HR MAX TEMP:  66;

MENOMONIE      SUNNY     61  59  94 CALM      30.05R
6HR MIN TEMP:  59; 6HR MAX TEMP:  64;

NEW RICHMOND   CLEAR     59  58  98 CALM      30.05R FOG
6HR MIN TEMP:  57; 6HR MAX TEMP:  63;

OSCEOLA        CLEAR     57  57 100 CALM      30.07R
6HR MIN TEMP:  56; 6HR MAX TEMP:  61;

$$

WIZ003>005-009-010-017-018-011300-
NORTH CENTRAL WISCONSIN

CITY           SKY/WX    TMP DP  RH WIND       PRES   REMARKS
WOODRUFF       SUNNY     52  46  80 CALM      30.06R
6HR MIN TEMP:  52; 6HR MAX TEMP:  55;

RHINELANDER    FOG       56  55  97 CALM      30.07R VSB 1/2
6HR MIN TEMP:  48; 6HR MAX TEMP:  53;

EAGLE RIVER    SUNNY     48  48 100 CALM      30.05S
6HR MIN TEMP:  46; 6HR MAX TEMP:  52;

LAND O LAKES   FOG       48  48 100 CALM      30.06S VSB 1/4
6HR MIN TEMP:  45; 6HR MAX TEMP:  49;

PHILLIPS       FOG       55  55 100 CALM      30.05S VSB<1/4
6HR MIN TEMP:  51; 6HR MAX TEMP:  57;

TOMAHAWK       MOSUNNY   49  48  97 CALM      30.07R FOG
6HR MIN TEMP:  47; 6HR MAX TEMP:  52;

MEDFORD        FOG       54  54 100 CALM      30.06R VSB 1/2
6HR MIN TEMP:  52; 6HR MAX TEMP:  57;

MERRILL        FOG       52  52 100 CALM      30.06R VSB<1/4
6HR MIN TEMP:  49; 6HR MAX TEMP:  57;

$$

WIZ029-030-035-036-043>047-011300-
CENTRAL WISCONSIN

CITY           SKY/WX    TMP DP  RH WIND       PRES   REMARKS
WAUSAU         SUNNY     57  56  96 NE3       30.05R
6HR MIN TEMP:  55; 6HR MAX TEMP:  63;

MOSINEE        SUNNY     55  55 100 CALM      30.06R FOG
MARSHFIELD     SUNNY     60  58  92 W3        30.05R
6HR MIN TEMP:  58; 6HR MAX TEMP:  65;

STEVENS POINT  SUNNY     55  54  98 CALM      30.06R
6HR MIN TEMP:  52; 6HR MAX TEMP:  58;

WAUPACA        SUNNY     60  58  94 CALM      30.05R FOG
6HR MIN TEMP:  58; 6HR MAX TEMP:  62;

WAUTOMA        SUNNY     59  56  89 CALM      30.06R
6HR MIN TEMP:  55; 6HR MAX TEMP:  60;

WISC RAPIDS    SUNNY     59  58  96 CALM      30.07R
6HR MIN TEMP:  57; 6HR MAX TEMP:  62;

CAMP DOUGLAS   SUNNY     58  58 100 CALM      30.06R
6HR MIN TEMP:  53; 6HR MAX TEMP:  58;

$$

WIZ011>013-019>022-031-037>040-048>050-011300-
NORTHEAST WISCONSIN

CITY           SKY/WX    TMP DP  RH WIND       PRES   REMARKS
ANTIGO         FOG       52  52 100 CALM      30.06R VSB 1/4
6HR MIN TEMP:  50; 6HR MAX TEMP:  53;

STURGEON BAY   SUNNY     59  55  88 CALM      30.04S
6HR MIN TEMP:  55; 6HR MAX TEMP:  61;

GREEN BAY      SUNNY     60  59  96 CALM      30.03R FOG
6HR MIN TEMP:  56; 6HR MAX TEMP:  62;

MANITOWOC      SUNNY     63  61  93 CALM      30.04R
6HR MIN TEMP:  58; 6HR MAX TEMP:  64;

APPLETON       PTSUNNY   61  59  94 CALM      30.05R
CLINTONVILLE   SUNNY     59  57  94 CALM      30.05R
OSHKOSH        PTSUNNY   63  59  87 SW3       30.04R
6HR MIN TEMP:  59; 6HR MAX TEMP:  66;

$$

WIZ032>034-041-042-053>061-011300-
SOUTHWEST WISCONSIN

CITY           SKY/WX    TMP DP  RH WIND       PRES   REMARKS
LA CROSSE      MOSUNNY   64  61  90 S8        30.06R
6HR MIN TEMP:  63; 6HR MAX TEMP:  67;

SPARTA         MOSUNNY   56  55  95 CALM      30.07S
6HR MIN TEMP:  52; 6HR MAX TEMP:  56;

VIROQUA        CLOUDY    60  59  95 W5        30.08R
6HR MIN TEMP:  58; 6HR MAX TEMP:  63;

BOSCOBEL       FOG       58  56  93 CALM      30.07S VSB<1/4
6HR MIN TEMP:  55; 6HR MAX TEMP:  59;

PRAIRIE DU CHI FOG       59  57  94 CALM      30.06S VSB<1/4
6HR MIN TEMP:  57; 6HR MAX TEMP:  60;

PLATTEVILLE    FAIR      59  57  95 CALM      30.09R
6HR MIN TEMP:  54; 6HR MAX TEMP:  64;

$$

WIZ056-057-062-063-064-067-068-011300-
SOUTH CENTRAL WISCONSIN

CITY           SKY/WX    TMP DP  RH WIND       PRES   REMARKS
BARABOO/DELLS  SUNNY     60  57  88 CALM      30.06S
6HR MIN TEMP:  57; 6HR MAX TEMP:  60;

LONE ROCK      FOG       59  56  89 CALM      30.07R VSB 1/4
6HR MIN TEMP:  57; 6HR MAX TEMP:  62;

WATERTOWN      SUNNY     58  58  98 CALM      30.06S
6HR MIN TEMP:  55; 6HR MAX TEMP:  59;

MADISON        SUNNY     60  57  89 CALM      30.06R
6HR MIN TEMP:  57; 6HR MAX TEMP:  63;

MIDDLETON      FAIR      59  57  94 CALM      30.07S
6HR MIN TEMP:  55; 6HR MAX TEMP:  59;

MONROE         SUNNY     59  55  88 SW5       30.07S
JANESVILLE     SUNNY     59  55  88 CALM      30.07R
$$

WIZ051-052-058>065-066-070>072-011300-
SOUTHEAST WISCONSIN

CITY           SKY/WX    TMP DP  RH WIND       PRES   REMARKS
MILWAUKEE      SUNNY     66  58  75 W5        30.06R
6HR MIN TEMP:  64; 6HR MAX TEMP:  68;

WAUKESHA       SUNNY     57  55  94 CALM      30.08R
MILWAUKEE/TIMM SUNNY     63  57  82 CALM      30.07R
RACINE         SUNNY     64  58  80 W6        30.08R
6HR MIN TEMP:  62; 6HR MAX TEMP:  67;

BURLINGTON     SUNNY     56  56  97 CALM      30.07S
6HR MIN TEMP:  54; 6HR MAX TEMP:  58;

KENOSHA        SUNNY     61  58  90 W3        30.08R
6HR MIN TEMP:  57; 6HR MAX TEMP:  63;

FOND DU LAC    PTSUNNY   63  58  83 SW6       30.05R
6HR MIN TEMP:  60; 6HR MAX TEMP:  64;

SHEBOYGAN      SUNNY     61  58  90 SW3       30.05R
6HR MIN TEMP:  57; 6HR MAX TEMP:  63;

WEST BEND      SUNNY     59  55  88 CALM      30.06R
JUNEAU         SUNNY     58  56  92 CALM      30.07S
6HR MIN TEMP:  57; 6HR MAX TEMP:  63;

$$

LSZ147-162-011300-
LAKE SUPERIOR

STATION/POSITION TIME  TEMP    WIND        PRES    WAVE
                       AIR SEA DIR/SP/G            HT/PER
                 (UTC) (F)     (DEG/KT/KT) (MB)    (FT/S)
W MID LAKE BUOY  1150   47 43  360/  6/  6 1017.7R   0
PORT WING        1100   54     160/  3/  4 1017.3
SAXON HARBOR     1100          200/  3/  6 1016.9
$$

LMZ867-665-643>646-011300-
LAKE MICHIGAN

STATION/POSITION TIME  TEMP    WIND        PRES    WAVE
                       AIR SEA DIR/SP/G            HT/PER
                 (UTC) (F)     (DEG/KT/KT) (MB)    (FT/S)
N MID LAKE BUOY  1150   58 54  210/  2/  2 1016.5R   1
NORTHPORT PIER   1100   61     160/  2/  3 1016.3R
SISTER BAY       1110   62        CALM       N/A
ALGOMA LAKESHORE 1106          330/  8/  9   N/A
KEWAUNEE LAKESHO 1200   60     300/  5/  6 1016.1R
SHEBOYGAN LAKESH 1200   68     260/  9/ 10 1017.2R
PORT WASHINGTON  1140   67     270/  5/  7 1017.9R
ATWATER BUOY     1200   67     250/  8     1018.6R
MILWAUKEE LAKESH 1200   68     280/  5/  6   N/A
S MID LAKE BUOY  1150   64 62  240/  6/  6 1018.0R   0
KENOSHA   LAKESH 1200   67     260/  7/  8 1017.9R
$$

TC  - TEMPERATURE IN CELSIUS
VSB - VISIBILITY IN STATUTE MILES
WCI - WIND CHILL INDEX
HX  - HEAT INDEX



USA.gov is the U.S. government's official web portal to all federal, state and local government web resources and services.